THEOS

Last updated on Sun Dec 07 2025 00:02:30 GMT+0000 (Coordinated Universal Time)

1 33396U 08049A 25340.62226806 .00000173 00000+0 10098-3 0 9992 2 33396 98.5878 38.8922 0001107 99.9859 260.1443 14.20094544890630
UTC large
Height (km)
Speed (km/s)
/
Latitude / Longitude
Inclination (degrees)
Orbital Period (minutes)
Azimuth
Elevation
Range (km)
Doppler Factor

Next 0 passes for location: London (51.5072 / 0.1276)

Sorry there are no passes over London.